NOAA NWS Hourly Roundups by Site

Regional Weather Roundup for Bismarck, ND

To Select Another Site Choose from List

Select Site:  

000
ASUS43 KBIS 251710
RWRBIS

NWR BROADCAST TEXT
NATIONAL WEATHER SERVICE BISMARCK ND
1200 PM CDT TUE JUN 25 2019

NOTE: "FAIR" INDICATES FEW OR NO CLOUDS BELOW 12,000 FEET WITH NO
SIGNIFICANT WEATHER AND/OR OBSTRUCTIONS TO VISIBILITY.


CITY           SKY/WX    TMP DP  RH WIND       PRES   REMARKS
WILLISTON      SUNNY     71  50  47 W9        29.84F
MINOT          SUNNY     72  53  51 W13       29.79S
MINOT AFB      SUNNY     71  54  54 NW12      29.78S
BISMARCK       SUNNY     75  49  39 W20G25    29.85S
DICKINSON      SUNNY     68  50  52 W8G18     29.88S
GARRISON         N/A     68  53  58 NW14G21   29.83S
HETTINGER ARPT SUNNY     69  45  41 NW6       29.93S
JAMESTOWN      SUNNY     71  58  63 W14G23    29.80R
CARRINGTON     FAIR      70  55  60 NW17      29.82R
HAZEN          FAIR      72  52  49 NW12G18   29.86S
MANDAN         FAIR      70  54  56 W15       29.87R
OAKES          FAIR      70  61  73 NW14G22   29.82R
RUGBY          FAIR      68  57  68 NW15G22   29.77S
STANLEY        FAIR      68  54  60 W12G20    29.84S
TIOGA          FAIR      66  57  72 W15       29.86R
WATFORD CITY   FAIR      70  52  52 W13G18    29.85S
$$

CITY           SKY/WX    TMP DP  RH WIND       PRES   REMARKS
GRAND FORKS    PTSUNNY   66  55  67 NW8       29.72R
GRAND FORKS AF PTSUNNY   71  59  66 W10       29.73S
DEVILS LAKE    MOSUNNY   69  55  60 W16       29.77R
FARGO          SUNNY     74  57  55 NW15      29.75R
CANDO          FAIR      70  57  64 W15G21    29.77S
CAVALIER         N/A     64  61  88 SW7       29.69R
GRAFTON        PTSUNNY   61  61 100 SW8       29.73R
GWINNER          N/A     72  59  64 W15       29.80R
LANGDON        FAIR     N/A N/A N/A W18       29.73S
ROLLA          FAIR      68  52  56 W16G24    29.76R
WALHALLA       FAIR      68  68 100 W10       29.69R
$$

CITY           SKY/WX    TMP DP  RH WIND       PRES   REMARKS
ABERDEEN       SUNNY     73  54  51 W15G22    29.85R
MOBRIDGE       SUNNY     73  55  53 W10       29.87R
BUFFALO          N/A     71  46  40 CALM      29.91S
RAPID CITY     SUNNY     71  56  58 S13       29.95F
GLASGOW        SUNNY     70  47  43 SW8       29.85F
SIDNEY         SUNNY     72  48  42 W14G20    29.86S
WOLF POINT     SUNNY     71  50  47 W13       29.86S
GLENDIVE       SUNNY     72  46  39 W12       29.89S
MILES CITY     SUNNY     70  43  37 N5        29.90S
BAKER          SUNNY     69  43  38 VRB3      29.93S
$$

CITY           SKY/WX    TMP DP  RH WIND       PRES   REMARKS
BILLINGS       MOSUNNY   70  50  49 CALM      29.91F
GREAT FALLS    SUNNY     65  29  25 VRB6      29.89F
REGINA         PTSUNNY   68  50  52 W21G26    29.76F
ESTEVAN        SUNNY     68  52  56 W17G26    29.79S
$$




 

View Past Reports for Bismarck, ND.

Products Courtesy of NOAA-NWS
NWS Information Parsing Script by Ken True at Saratoga Weather - Script by SE Lincoln Weather.